EW9167 Weather Reports


time (UTC)temp
C
wind
direction
speed
KPH
gust
KPH
rain 1hr
cm
rain 24hr
cm
rain mn
cm
humidity
%
barometer
mb
20260506201432 21 249 4.8 19.3 0.00 0.03 0.03 70 1009.2
20260506200433 20 218 4.8 22.5 0.00 0.03 0.03 71 1009.6
20260506195433 20 196 4.8 17.7 0.00 0.03 0.03 72 1009.6
20260506194433 20 246 9.7 22.5 0.00 0.03 0.03 73 1009.9
20260506193434 20 102 3.2 16.1 0.00 0.03 0.03 73 1009.9
20260506192434 20 264 6.4 14.5 0.00 0.03 0.03 74 1009.9
20260506191434 19 216 6.4 19.3 0.00 0.03 0.03 75 1009.9
20260506190432 19 226 14.5 14.5 0.00 0.03 0.03 75 1010.2
20260506185434 19 236 8.0 20.9 0.00 0.03 0.03 75 1010.2
20260506184431 19 222 9.7 17.7 0.00 0.03 0.03 76 1010.2
20260506183435 18 253 6.4 14.5 0.00 0.03 0.03 76 1010.2
20260506182436 18 207 6.4 17.7 0.00 0.03 0.03 77 1010.2
20260506181433 18 256 6.4 17.7 0.00 0.03 0.03 78 1010.6
20260506180431 18 145 4.8 14.5 0.00 0.03 0.03 79 1010.2
20260506175432 18 165 3.2 14.5 0.00 0.03 0.03 78 1010.6
20260506174433 18 221 12.9 20.9 0.00 0.03 0.03 76 1010.9
20260506173430 18 131 1.6 11.3 0.00 0.03 0.03 77 1010.6
20260506173402 18 208 3.2 17.7 0.00 0.03 0.03 76 1010.6
20260506171430 18 87 8.0 14.5 0.03 0.03 0.03 77 1010.9
20260506170905 18 252 9.7 20.9 0.03 0.03 0.03 77 1010.9
20260506165434 18 279 3.2 12.9 0.03 0.03 0.03 77 1010.9
20260506164916 19 146 3.2 19.3 0.03 0.03 0.03 76 1011.2
20260506163434 19 157 1.6 8.0 0.03 0.03 0.03 77 1011.2
20260506162434 19 184 3.2 9.7 0.03 0.03 0.03 76 1011.2
20260506161435 19 244 4.8 14.5 0.00 0.00 0.00 74 1011.6
20260506160435 19 147 3.2 20.9 0.00 0.00 0.00 73 1011.9
20260506155433 20 216 4.8 14.5 0.00 0.00 0.00 71 1012.3
20260506154434 20 223 8.0 14.5 0.00 0.00 0.00 70 1011.9
20260506153435 20 165 6.4 17.7 0.00 0.00 0.00 69 1012.3
20260506152432 20 227 6.4 16.1 0.00 0.00 0.00 70 1011.9
20260506151432 20 259 1.6 16.1 0.00 0.00 0.00 68 1011.9
20260506150431 20 186 3.2 20.9 0.00 0.00 0.00 65 1011.9
20260506145435 21 260 4.8 14.5 0.00 0.00 0.00 64 1011.9
20260506144435 21 209 3.2 11.3 0.00 0.00 0.00 62 1012.3
20260506143432 21 196 6.4 11.3 0.00 0.00 0.00 64 1012.3
20260506142435 20 240 9.7 14.5 0.00 0.00 0.00 64 1011.9
20260506141916 20 272 4.8 19.3 0.00 0.00 0.00 63 1012.3
20260506140435 21 219 11.3 19.3 0.00 0.00 0.00 61 1012.3
20260506135436 22 84 4.8 19.3 0.00 0.00 0.00 62 1012.3
20260506134918 21 212 4.8 12.9 0.00 0.00 0.00 63 1011.9
20260506133434 20 245 1.6 14.5 0.00 0.00 0.00 64 1012.3
20260506132430 20 208 3.2 16.1 0.00 0.00 0.00 65 1012.3
20260506131436 20 199 6.4 16.1 0.00 0.00 0.00 65 1012.3
20260506130428 20 148 3.2 16.1 0.00 0.00 0.00 66 1012.3
20260506125427 20 81 1.6 17.7 0.00 0.00 0.00 66 1012.3
20260506124429 20 285 0.0 19.3 0.00 0.00 0.00 67 1012.3
20260506123913 20 94 3.2 12.9 0.00 0.00 0.00 68 1012.3
20260506122428 20 238 6.4 12.9 0.00 0.00 0.00 68 1011.9
20260506121425 20 136 1.6 11.3 0.00 0.00 0.00 68 1012.3
20260506120424 19 243 3.2 9.7 0.00 0.00 0.00 70 1012.3
20260506115421 18 231 3.2 11.3 0.00 0.00 0.00 73 1012.3
20260506114421 18 175 1.6 6.4 0.00 0.00 0.00 73 1012.3
20260506114355 18 149 4.8 11.3 0.00 0.00 0.00 73 1012.3
20260506112418 18 243 3.2 6.4 0.00 0.00 0.00 74 1011.9
20260506111853 18 128 6.4 9.7 0.00 0.00 0.00 74 1011.9
20260506110413 17 167 3.2 11.3 0.00 0.00 0.00 75 1011.9
20260506105412 17 144 1.6 14.5 0.00 0.00 0.00 76 1012.3
20260506104412 17 305 3.2 6.4 0.00 0.00 0.00 77 1012.3
20260506103411 17 117 1.6 8.0 0.00 0.00 0.00 78 1012.3
20260506102848 16 136 1.6 6.4 0.00 0.00 0.00 79 1012.3
20260506101408 16 133 0.0 8.0 0.00 0.00 0.00 79 1011.9
20260506100407 16 158 4.8 6.4 0.00 0.00 0.00 79 1012.3
20260506095408 17 112 3.2 9.7 0.00 0.00 0.00 79 1012.3
20260506094407 17 229 1.6 6.4 0.00 0.00 0.00 79 1012.3
20260506093406 17 119 1.6 8.0 0.00 0.00 0.00 78 1011.9
20260506092406 17 143 3.2 6.4 0.00 0.00 0.00 78 1011.9
20260506091405 17 131 3.2 6.4 0.00 0.00 0.00 78 1011.6
20260506090401 17 162 1.6 6.4 0.00 0.00 0.00 78 1011.9
20260506085400 17 89 3.2 6.4 0.00 0.00 0.00 78 1012.3
20260506084842 17 202 4.8 8.0 0.00 0.00 0.00 78 1011.9
20260506083358 17 131 3.2 4.8 0.00 0.00 0.00 78 1012.3
20260506082358 17 122 3.2 9.7 0.00 0.00 0.00 78 1012.3
20260506081834 17 159 3.2 14.5 0.00 0.00 0.00 77 1012.6
20260506080355 17 168 3.2 8.0 0.00 0.00 0.00 77 1012.3
20260506072350 17 153 0.0 6.4 0.00 0.00 0.00 77 1012.3
20260506071350 17 137 1.6 6.4 0.00 0.00 0.00 76 1012.3
20260506070348 17 179 1.6 6.4 0.00 0.00 0.00 77 1012.3
20260506062332 18 132 1.6 6.4 0.00 0.00 0.00 75 1012.3
20260506061331 18 133 3.2 6.4 0.00 0.00 0.00 75 1012.3
20260506060813 18 119 1.6 9.7 0.00 0.00 0.00 74 1012.3
20260506051335 18 161 1.6 6.4 0.00 0.00 0.00 73 1012.6
20260506050809 18 138 3.2 6.4 0.00 0.00 0.00 73 1012.9
20260506044334 18 156 4.8 6.4 0.00 0.00 0.00 72 1012.9
20260506043333 19 215 1.6 11.3 0.00 0.00 0.00 72 1012.9
20260506042331 19 106 1.6 6.4 0.00 0.00 0.00 71 1012.9
20260506041333 19 145 3.2 8.0 0.00 0.00 0.00 71 1012.9
20260506040331 19 152 3.2 8.0 0.00 0.00 0.00 70 1012.9
20260506035803 19 164 3.2 9.7 0.00 0.00 0.00 70 1012.9
20260506034333 19 160 3.2 6.4 0.00 0.00 0.00 70 1012.9
20260506033332 19 187 4.8 9.7 0.00 0.00 0.00 69 1012.9
20260506032333 19 144 3.2 6.4 0.00 0.00 0.00 68 1012.9
20260506031333 20 104 1.6 14.5 0.00 0.00 0.00 68 1012.9
20260506030332 20 98 0.0 9.7 0.00 0.00 0.00 67 1012.9
20260506025331 20 188 4.8 8.0 0.00 0.00 0.00 66 1012.6
20260506024332 20 134 3.2 8.0 0.00 0.00 0.00 65 1012.9
20260506023334 20 186 6.4 8.0 0.00 0.00 0.00 64 1012.9
20260506022334 20 119 3.2 8.0 0.00 0.00 0.00 63 1012.6
20260506021333 20 169 0.0 8.0 0.00 0.00 0.00 63 1012.9
20260506020332 20 205 3.2 6.4 0.00 0.00 0.00 62 1012.6
20260506015815 20 71 0.0 9.7 0.00 0.00 0.00 62 1012.9
20260506014333 20 107 3.2 8.0 0.00 0.00 0.00 62 1012.6
20260506013814 20 170 8.0 11.3 0.00 0.00 0.00 62 1012.3
20260506013253 21 120 3.2 9.7 0.00 0.00 0.00 61 1012.6
20260506011333 21 293 3.2 8.0 0.00 0.00 0.00 61 1012.3
20260506010334 21 139 1.6 8.0 0.00 0.00 0.00 59 1012.3
20260506005332 21 116 3.2 6.4 0.00 0.00 0.00 58 1012.3
20260506004335 21 181 3.2 4.8 0.00 0.00 0.00 56 1012.3
20260506003335 22 191 3.2 6.4 0.00 0.00 0.00 54 1011.9
20260506002335 22 128 3.2 8.0 0.00 0.00 0.00 52 1011.9
20260506001808 23 131 0.0 8.0 0.00 0.00 0.00 49 1011.6
20260506000332 23 148 3.2 8.0 0.00 0.00 0.00 47 1011.2
20260505235329 24 144 1.6 9.7 0.00 0.00 0.00 45 1011.6
20260505234334 24 212 3.2 9.7 0.00 0.00 0.00 44 1011.2
20260505233329 25 227 1.6 9.7 0.00 0.00 0.00 43 1011.2
20260505232328 25 218 4.8 8.0 0.00 0.00 0.00 43 1011.2
20260505231324 25 114 1.6 9.7 0.00 0.00 0.00 42 1011.2
20260505230824 26 125 4.8 17.7 0.00 0.00 0.00 41 1010.9
20260505225324 26 126 1.6 14.5 0.00 0.00 0.00 42 1011.2
20260505224323 26 103 0.0 14.5 0.00 0.00 0.00 42 1011.2
20260505223322 26 222 6.4 16.1 0.00 0.00 0.00 41 1011.2
20260505222320 26 268 3.2 20.9 0.00 0.00 0.00 40 1011.2
20260505221318 27 274 8.0 22.5 0.00 0.00 0.00 38 1011.2
20260505220316 29 242 3.2 12.9 0.00 0.00 0.00 37 1011.2
20260505215314 30 210 3.2 17.7 0.00 0.00 0.00 37 1011.2
20260505214312 30 240 8.0 12.9 0.00 0.00 0.00 34 1011.2
20260505213312 30 244 6.4 17.7 0.00 0.00 0.00 35 1011.2
20260505212311 30 255 8.0 20.9 0.00 0.00 0.00 34 1010.9
20260505211309 31 230 3.2 14.5 0.00 0.00 0.00 33 1010.9
20260505210751 31 247 6.4 17.7 0.00 0.00 0.00 31 1010.9
20260505205310 31 222 14.5 24.1 0.00 0.00 0.00 30 1010.6
20260505204306 31 236 4.8 16.1 0.00 0.00 0.00 30 1010.9
20260505203305 31 250 3.2 24.1 0.00 0.00 0.00 29 1010.9